Other Public Products
Issued by NWS Grand Forks, ND

Home | Current Version | Previous Version | Text Only | Print | Product List | Glossary On
Versions: 1 2 3 4 5 6 7 8 9 10 11 12 13 14 15 16 17 18 19 20 21 22 23 24 25 26 27 28 29 30 31 32 33 34 35 36 37 38 39 40 41 42 43 44 45 46 47 48 49 50
000
FPUS83 KFGF 232110
OPUFGF
PRAIRIE TO PINES WEATHER ROUNDUP
NATIONAL WEATHER SERVICE EASTERN NORTH DAKOTA/GRAND FORKS ND
400 PM CDT TUE MAY 23 2017

 **SATELLITE DATA USED TO AUGMENT SKY COVER AT AUTOMATED STATIONS**
 *****  WEATHER ACROSS EASTERN NORTH DAKOTA  *****

CITY           SKY/WX    TMP DP  RH WIND       PRES   REMARKS
GRAND FORKS    PTSUNNY   62  44  51 N18       29.97F
GRAND FORKS AF PTSUNNY   61  40  47 NE17G28   29.99S
GRAND CITY NWS NOT AVBL
BUXTON         NOT AVBL
DEVILS LAKE    CLOUDY    62  38  40 NE22      30.02F
FARGO          PTSUNNY   59  45  59 NE21G28   29.95S
WAHPETON ARPT  CLOUDY    55  45  67 N16G28    29.92S
$$

 *****  WEATHER ACROSS CENTRAL AND WESTERN NORTH DAKOTA  *****

CITY           SKY/WX    TMP DP  RH WIND       PRES   REMARKS
JAMESTOWN      CLOUDY    57  42  57 NE21      29.99F
BISMARCK       CLOUDY    64  34  32 N13       30.04F
MINOT          FAIR      68  33  27 NE12G20   30.03F
MINOT AFB      FAIR      67  33  27 NE10      30.02F
GARRISON         N/A     66  34  30 NE14G22   30.04F
WILLISTON      FAIR      72  32  23 S9        30.05F
DICKINSON      FAIR      63  32  31 NE8       30.05F
HETTINGER      FAIR      65  33  30 N15G21    30.08F
$$

 *****  OTHER OBSERVATIONS NORTHEAST NORTH DAKOTA  *****

CITY           SKY/WX    TMP DP  RH WIND       PRES   REMARKS
WALHALLA       NOT AVBL
LANGDON        MOCLDY    64  39  39 NE17      30.03F
CAVALIER       FAIR      64  39  39 NE12G20   30.00F
GRAFTON        MOCLDY    61  41  48 NE15      30.00F
CANDO          NOT AVBL
FORT TOTTEN      N/A     61  40  45 NE6       29.95S
ROLLA          FAIR      64  32  29 NE14G22   30.04F
RUGBY          NOT AVBL
 ***** THE ABOVE OBSERVATIONS ARE NON NWS ARE NOT QUALITY
        CONTROLLED AND MAY MIS-REPORT RAIN FOR SNOW...
$$

 *****  OTHER OBSERVATIONS SOUTHEAST NORTH DAKOTA *****

CITY           SKY/WX    TMP DP  RH WIND       PRES   REMARKS
COOPERSTOWN    CLOUDY    57  43  58 NE20G26   30.00S
VALLEY CITY    CLOUDY    54  45  71 NE15G23   29.99F
OAKES          NOT AVBL
GWINNER        MOCLDY    54  46  76 MISG      29.96S
SHEYENNE NWR     N/A     55  44  67 NE15      29.95S
BUFFALO        NOT AVBL
WYNDMERE         N/A     55  46  71 N20         N/A
 ***** THE ABOVE OBSERVATIONS ARE NON NWS ARE NOT QUALITY
       CONTROLLED AND MAY MIS-REPORT RAIN FOR SNOW...
$$

  *****  WEATHER ACROSS NORTHERN MINNESOTA  *****

CITY           SKY/WX    TMP DP  RH WIND       PRES   REMARKS
FLAG ISLAND    FAIR      63  34  34 NE13G20   29.96F
WARROAD        NOT AVBL
ROSEAU         FAIR      63  43  48 NE20      29.98S
HALLOCK        PTSUNNY   64  37  36 NE12G22   29.98F
THF RVR FALLS  CLOUDY    57  42  57 NE17      29.97F
HALSTAD          N/A     55  45  68 NE15        N/A
FOSSTON        PTSUNNY   54  50  87 N12       29.96S
BAUDETTE       CLOUDY    56  40  55 NE15G23   29.96S
WASKISH        CLOUDY    54  45  71 NE7       29.95F
CROOKSTON      CLOUDY    57  43  58 NE12G18   29.97S
$$
  *****  WEATHER ACROSS CENTRAL AND WEST MINNESOTA  *****

CITY           SKY/WX    TMP DP  RH WIND       PRES   REMARKS
BEMIDJI        CLOUDY    52  45  78 NE14      29.94S
PARK RAPIDS    CLOUDY    54  42  64 N16       29.91R
WADENA         CLOUDY    54  45  71 N15G24    29.88S
DETROIT LAKES  PTSUNNY   55  45  67 N12G18    29.94R
MOORHEAD       CLOUDY    54  45  71 NE18G24   29.96S
FERGUS FALLS   PTSUNNY   55  46  71 NE10G16   29.89S
ELBOW LAKE     CLOUDY    56  46  69 N14G20    29.89S
MORRIS MN      PTSUNNY   57  46  67 N12       29.87R
STAPLES        PTSUNNY   57  39  51 N9        29.88S
WHEATON        CLOUDY    55  46  71 NW14G22   29.91F
$$
  *****  WEATHER ELSEWHERE ACROSS MINNESOTA  *****

CITY           SKY/WX    TMP DP  RH WIND       PRES   REMARKS
DULUTH         PTSUNNY   56  47  71 E10       29.86S
INTRNTL FALLS  CLOUDY    54  42  64 NE12G21   29.94F
ELY            CLOUDY    52  43  71 NE7       29.90F
CLOQUET        PTSUNNY   55  43  62 E9        29.86S
BRAINERD       CLOUDY    58  41  53 NE13      29.87S
HIBBING        CLOUDY    53  45  74 N14G23    29.88S
ALEXANDRIA     CLOUDY    56  45  66 NE7       29.88S
SAINT CLOUD    CLOUDY    57  47  69 N6        29.84R
MINNEAPOLIS    CLOUDY    60  45  57 NE10      29.80S
$$

  *****  WEATHER ACROSS SOUTH DAKOTA  *****

CITY           SKY/WX    TMP DP  RH WIND       PRES   REMARKS
SIOUX FALLS    CLOUDY    58  48  69 N17       29.85F
BROOKINGS      CLOUDY    52  46  82 N20       29.87S
WATERTOWN      LGT RAIN  48  46  93 N23G29    29.90R FOG
HURON          CLOUDY    53  45  74 N21       29.94S
SISSETON         N/A     53  49  86 N22G30    29.91F
ABERDEEN       CLOUDY    56  41  57 N18       29.97F
MITCHELL       CLOUDY    56  45  66 N18G32    29.93S
PIERRE         LGT RAIN  56  39  53 N20G28    30.02R
MOBRIDGE       CLOUDY    59  37  44 NE16G25   30.01F
RAPID CITY     FAIR      63  34  33 N20G33    30.07F
$$

  *****  SOME WEATHER IN NEARBY STATES *****

CITY           SKY/WX    TMP DP  RH WIND       PRES   REMARKS
GLASGOW MT     FAIR      70  31  23 SE18      29.99F
GREAT FALLS MT FAIR      78  42  27 SW14G22   29.92F
CHEYENNE WY    PTSUNNY   55  30  38 N15G29    30.15F
SCOTTSBLUFF NE PTSUNNY   63  33  32 N22       30.08F
OMAHA NE       PTSUNNY   61  45  55 NW13      29.84S
DES MOINES IA  PTSUNNY   61  46  57 N12       29.76F
DAVENPORT IA   FAIR      62  51  67 NW5       29.72F
CHICAGO IL     HVY RAIN  60  56  86 SW3       29.73S FOG
EAU CLAIRE WI  CLOUDY    57  45  64 N10       29.77R
LA CROSSE WI   CLOUDY    60  51  72 N12       29.72S
$$

  *****  SOME NATIONAL WEATHER *****

CITY           SKY/WX    TMP DP  RH WIND       PRES   REMARKS
LA GUARDIA NY  CLOUDY    69  46  43 NE5       29.85F
RALEIGH NC     LGT RAIN  69  67  93 NE6       29.71F FOG
ATLANTA GA     PTSUNNY   72  64  76 S6        29.72F
NEW ORLEANS LA PTSUNNY   82  69  64 W7        29.73F
OKLAHOMA CITY  PTSUNNY   68  46  45 N14G21    29.91F
ALBUQUERQUE NM PTSUNNY   73  32  22 W3        30.06F
SALT LAKE CITY PTSUNNY   80  37  21 N9        30.12F
LOS ANGELES CA PTSUNNY   65  57  75 W14       29.96F
BOISE ID       FAIR      83  40  21 VRB5      30.03F
SEATTLE WA     FAIR      77  57  50 W7        29.98F
$$

*** WEATHER ACROSS MANITOBA...SASKATCHEWAN AND ONTARIO ***
                ***ONTARIO***

CITY           SKY/WX    TMP DP  RH WIND       PRES   REMARKS
GERALDTON      CLOUDY    54  43  66 N8        29.92S
THUNDER BAY    PTSUNNY   55  45  67 CALM      29.88F
SIOUX LOOKOUT  PTSUNNY   63  37  39 SE9       29.95F
TORONTO        PTSUNNY   66  50  55 SE7       29.78F
BIG TROUT LK   SUNNY     54  27  35 SW9       30.03F
PICKLE LAKE    MOSUNNY   61  23  23 N8        29.97F
DRYDEN         CLOUDY    61  37  41 NE10      29.95F
KENORA         PTSUNNY   64  37  36 NE9       29.97F
$$
                *** MANITOBA***

CITY           SKY/WX    TMP DP  RH WIND       PRES   REMARKS
BRANDON        MOSUNNY   68  37  32 VRB2      30.02F
DAUPHIN        SUNNY     73  34  23 SE12      29.98F
ISLAND LAKE    MOSUNNY   68  27  21 SE6       30.00F
PILOT MOUND      N/A     64  32  29 E10G17      N/A
THE PAS        PTSUNNY   72  39  30 MISG      29.88F
THOMPSON       CLOUDY    70  30  23 S16G23    29.87F
WINNIPEG       MOSUNNY   66  36  32 N7G17     30.00F
LYNN LAKE      LGT RAIN  61  45  55 SW12G20   29.78F
CHURCHILL      PTSUNNY   50  37  62 S18       29.86F
GILLAM         MOSUNNY   70  34  26 SW10G21   29.92F
$$
                ***SASKATCHEWAN***

CITY           SKY/WX    TMP DP  RH WIND       PRES   REMARKS
ESTEVAN        PTSUNNY   68  37  32 S8        30.03F
KINDERSLEY     PTSUNNY   79  36  21 S22       29.77F
LLOYDMINSTER   PTSUNNY   79  43  27 SW17G28   29.68F
PRINCE ALBERT  CLOUDY    72  36  26 SW13G21   29.84F
REGINA         PTSUNNY   73  32  21 SW12G22   29.94F
YORKTON          N/A     70  30  23 S12       29.98F



USA.gov is the U.S. government's official web portal to all federal, state and local government web resources and services.